When you browse on this site, cookies collect data to enhance your experience and personalize the content and advertising you see.
Visit our Privacy Policy to learn more. By continuing to use the site, you agree to this use of cookies and data.
  • în România
  • Lista ţărilor
  • Pe 7 zile
  • Temperatura apei
  • Hartă satelitară
  • Meteo pe hartă
  • Widget-uri
  • user-avatar
    Intrare

    Meteo pe oră la Gjirokaster

    Astăzi, 12 Decembrie, Miercuri

    Timp Temperatura Precipitaţii Vânt Presiune Umiditate
    00:00 -5°C° 0 mm 2 m/s 649 mmHg 68%
    01:00 -5°C° 0 mm 2 m/s 649 mmHg 67%
    02:00 -5°C° 0 mm 2 m/s 649 mmHg 64%
    03:00 -5°C° 0 mm 2 m/s 649 mmHg 62%
    04:00 -5°C° 0 mm 2 m/s 649 mmHg 59%
    05:00 -5°C° 0 mm 2 m/s 649 mmHg 57%
    06:00 -5°C° 0 mm 2 m/s 650 mmHg 55%
    07:00 -5°C° 0 mm 2 m/s 650 mmHg 52%
    08:00 -4°C° 0 mm 2 m/s 650 mmHg 47%
    09:00 0°C° 0 mm 1 m/s 651 mmHg 41%
    10:00 +1°C° 0 mm 1 m/s 651 mmHg 35%
    11:00 +2°C° 0 mm 1 m/s 651 mmHg 34%
    12:00 +2°C° 0 mm 1 m/s 651 mmHg 33%
    13:00 +3°C° 0 mm 1 m/s 651 mmHg 32%
    14:00 +2°C° 0 mm 1 m/s 651 mmHg 38%
    15:00 +1°C° 0 mm 1 m/s 651 mmHg 43%
    16:00 0°C° 0 mm 1 m/s 651 mmHg 49%
    17:00 -1°C° 0 mm 1 m/s 651 mmHg 50%
    18:00 -1°C° 0 mm 1 m/s 651 mmHg 51%
    19:00 -2°C° 0 mm 1 m/s 651 mmHg 52%
    20:00 -2°C° 0 mm 1 m/s 651 mmHg 53%
    21:00 -4°C° 0 mm 2 m/s 651 mmHg 54%
    22:00 -4°C° 0 mm 2 m/s 651 mmHg 55%
    23:00 -4°C° 0 mm 2 m/s 651 mmHg 56%

    Mâine, 13 Decembrie, Joi

    Timp Temperatura Precipitaţii Vânt Presiune Umiditate
    00:00 -4°C° 0 mm 2 m/s 651 mmHg 56%
    01:00 -4°C° 0 mm 2 m/s 651 mmHg 57%
    02:00 -4°C° 0 mm 2 m/s 651 mmHg 56%
    03:00 -5°C° 0 mm 3 m/s 651 mmHg 55%
    04:00 -4°C° 0 mm 3 m/s 650 mmHg 55%
    05:00 -4°C° 0 mm 3 m/s 650 mmHg 54%
    06:00 -4°C° 0 mm 3 m/s 650 mmHg 54%
    07:00 -4°C° 0 mm 3 m/s 650 mmHg 53%
    08:00 -2°C° 0.1 mm 3 m/s 650 mmHg 55%
    09:00 -2°C° 0.1 mm 3 m/s 650 mmHg 57%
    10:00 -2°C° 0.1 mm 3 m/s 650 mmHg 59%
    11:00 -2°C° 0.2 mm 3 m/s 649 mmHg 64%
    12:00 -2°C° 0.2 mm 3 m/s 649 mmHg 69%
    13:00 -2°C° 0.2 mm 3 m/s 648 mmHg 75%
    14:00 -2°C° 0.2 mm 3 m/s 648 mmHg 77%
    15:00 -3°C° 0.2 mm 4 m/s 648 mmHg 79%
    16:00 -3°C° 0.2 mm 4 m/s 648 mmHg 81%
    17:00 -3°C° 0.2 mm 4 m/s 648 mmHg 82%
    18:00 -3°C° 0.2 mm 4 m/s 648 mmHg 83%
    19:00 -3°C° 0.2 mm 4 m/s 648 mmHg 84%
    20:00 -3°C° 0.3 mm 4 m/s 648 mmHg 85%
    21:00 -3°C° 0.3 mm 4 m/s 648 mmHg 86%
    22:00 -3°C° 0.3 mm 4 m/s 648 mmHg 87%
    23:00 -3°C° 0.3 mm 4 m/s 648 mmHg 87%

    Poimâine, 14 Decembrie, Vineri

    Timp Temperatura Precipitaţii Vânt Presiune Umiditate
    00:00 -3°C° 0.3 mm 4 m/s 648 mmHg 88%
    01:00 -2°C° 0.3 mm 4 m/s 648 mmHg 89%
    02:00 -2°C° 0.5 mm 4 m/s 648 mmHg 90%
    03:00 -2°C° 0.5 mm 4 m/s 648 mmHg 91%
    04:00 -2°C° 0.5 mm 4 m/s 648 mmHg 92%
    05:00 -1°C° 0.3 mm 4 m/s 648 mmHg 92%
    06:00 -1°C° 0.3 mm 4 m/s 648 mmHg 92%
    07:00 -1°C° 0.3 mm 4 m/s 649 mmHg 92%
    08:00 0°C° 0.1 mm 4 m/s 649 mmHg 91%
    09:00 +1°C° 0.1 mm 4 m/s 650 mmHg 89%
    10:00 +3°C° 0.1 mm 5 m/s 650 mmHg 88%
    11:00 +3°C° 0.3 mm 5 m/s 650 mmHg 87%
    12:00 +5°C° 0.3 mm 5 m/s 650 mmHg 86%
    13:00 +6°C° 0.3 mm 5 m/s 650 mmHg 85%
    14:00 +5°C° 0.2 mm 5 m/s 649 mmHg 87%
    15:00 +3°C° 0.2 mm 5 m/s 649 mmHg 88%
    16:00 +2°C° 0.2 mm 5 m/s 649 mmHg 90%
    17:00 +2°C° 0.1 mm 5 m/s 649 mmHg 90%
    18:00 +1°C° 0.1 mm 5 m/s 649 mmHg 90%
    19:00 0°C° 0.1 mm 5 m/s 649 mmHg 90%
    20:00 0°C° 0 mm 5 m/s 649 mmHg 89%
    21:00 0°C° 0 mm 5 m/s 649 mmHg 87%
    22:00 0°C° 0 mm 5 m/s 649 mmHg 86%
    23:00 0°C° 0.1 mm 5 m/s 648 mmHg 85%

    15 Decembrie, Sâmbătă

    Timp Temperatura Precipitaţii Vânt Presiune Umiditate
    00:00 0°C° 0.1 mm 5 m/s 648 mmHg 85%
    01:00 0°C° 0.1 mm 5 m/s 648 mmHg 84%
    02:00 0°C° 0.5 mm 5 m/s 648 mmHg 85%
    03:00 0°C° 0.5 mm 5 m/s 647 mmHg 86%
    04:00 0°C° 0.5 mm 5 m/s 647 mmHg 87%
    05:00 0°C° 0.9 mm 5 m/s 647 mmHg 87%
    06:00 0°C° 0.9 mm 5 m/s 647 mmHg 88%
    07:00 0°C° 0.9 mm 5 m/s 647 mmHg 89%
    08:00 0°C° 0.8 mm 5 m/s 647 mmHg 88%
    09:00 +1°C° 0.8 mm 5 m/s 647 mmHg 87%
    10:00 +1°C° 0.8 mm 5 m/s 647 mmHg 86%
    11:00 +2°C° 0.1 mm 5 m/s 647 mmHg 82%
    12:00 +3°C° 0.1 mm 5 m/s 647 mmHg 77%
    13:00 +5°C° 0.1 mm 5 m/s 646 mmHg 72%
    14:00 +5°C° 0.1 mm 4 m/s 646 mmHg 75%
    15:00 +4°C° 0.1 mm 4 m/s 646 mmHg 78%
    16:00 +3°C° 0.1 mm 4 m/s 645 mmHg 81%
    17:00 +3°C° 0.1 mm 4 m/s 645 mmHg 83%
    18:00 +1°C° 0.1 mm 4 m/s 645 mmHg 84%
    19:00 +1°C° 0.1 mm 4 m/s 645 mmHg 86%
    20:00 +1°C° 0.2 mm 4 m/s 645 mmHg 86%
    21:00 +2°C° 0.2 mm 3 m/s 645 mmHg 87%
    22:00 +1°C° 0.2 mm 3 m/s 645 mmHg 87%
    23:00 +1°C° 0.4 mm 3 m/s 645 mmHg 88%

    16 Decembrie, Duminică

    Timp Temperatura Precipitaţii Vânt Presiune Umiditate
    00:00 +2°C° 0.4 mm 2 m/s 645 mmHg 89%
    01:00 +2°C° 0.4 mm 2 m/s 645 mmHg 89%
    02:00 +2°C° 0.3 mm 2 m/s 645 mmHg 89%
    03:00 +2°C° 0.3 mm 2 m/s 645 mmHg 89%
    04:00 +2°C° 0.3 mm 2 m/s 645 mmHg 88%
    05:00 +2°C° 0.1 mm 2 m/s 646 mmHg 88%
    06:00 +2°C° 0.1 mm 2 m/s 646 mmHg 87%
    07:00 +2°C° 0.1 mm 2 m/s 646 mmHg 87%
    08:00 +3°C° 0.1 mm 2 m/s 647 mmHg 84%
    09:00 +4°C° 0.1 mm 2 m/s 648 mmHg 80%
    10:00 +5°C° 0.1 mm 2 m/s 648 mmHg 77%
    11:00 +5°C° 0.1 mm 2 m/s 649 mmHg 74%
    12:00 +5°C° 0.1 mm 3 m/s 649 mmHg 72%
    13:00 +7°C° 0.1 mm 3 m/s 649 mmHg 70%
    14:00 +5°C° 0.1 mm 3 m/s 649 mmHg 73%
    15:00 +4°C° 0.1 mm 3 m/s 649 mmHg 77%
    16:00 +3°C° 0.1 mm 3 m/s 650 mmHg 80%
    17:00 +3°C° 0 mm 3 m/s 650 mmHg 81%
    18:00 +2°C° 0 mm 3 m/s 650 mmHg 82%
    19:00 +1°C° 0 mm 3 m/s 651 mmHg 84%
    20:00 +1°C° 0 mm 3 m/s 651 mmHg 84%
    21:00 +1°C° 0 mm 3 m/s 651 mmHg 84%
    22:00 +1°C° 0 mm 3 m/s 652 mmHg 84%
    23:00 +1°C° 0 mm 3 m/s 652 mmHg 83%

    17 Decembrie, Luni

    Timp Temperatura Precipitaţii Vânt Presiune Umiditate
    00:00 +1°C° 0 mm 2 m/s 652 mmHg 83%
    01:00 +1°C° 0 mm 2 m/s 652 mmHg 83%
    02:00 +1°C° 0 mm 2 m/s 652 mmHg 83%
    03:00 +1°C° 0 mm 2 m/s 652 mmHg 83%
    04:00 +1°C° 0 mm 2 m/s 652 mmHg 83%
    05:00 +1°C° 0 mm 2 m/s 652 mmHg 83%
    06:00 +1°C° 0 mm 2 m/s 652 mmHg 83%
    07:00 +1°C° 0 mm 2 m/s 652 mmHg 83%
    08:00 +2°C° 0 mm 2 m/s 653 mmHg 79%
    09:00 +4°C° 0 mm 2 m/s 654 mmHg 75%
    10:00 +7°C° 0 mm 1 m/s 654 mmHg 70%
    11:00 +7°C° 0 mm 1 m/s 654 mmHg 68%
    12:00 +8°C° 0 mm 1 m/s 654 mmHg 66%
    13:00 +8°C° 0 mm 2 m/s 654 mmHg 64%
    14:00 +8°C° 0 mm 1 m/s 654 mmHg 69%
    15:00 +7°C° 0 mm 1 m/s 653 mmHg 73%
    16:00 +6°C° 0 mm 1 m/s 653 mmHg 77%
    17:00 +6°C° 0 mm 1 m/s 653 mmHg 79%
    18:00 +5°C° 0 mm 1 m/s 653 mmHg 81%
    19:00 +5°C° 0 mm 1 m/s 653 mmHg 83%
    20:00 +4°C° 0 mm 2 m/s 653 mmHg 83%
    21:00 +4°C° 0 mm 2 m/s 653 mmHg 84%
    22:00 +3°C° 0 mm 2 m/s 653 mmHg 85%
    23:00 +2°C° 0.2 mm 3 m/s 653 mmHg 86%
    Arată mai mult